Satellite: FENGYUN 1D
Catalog number: 27431
Epoch time:      103035.96206361
Element set:     230 
Inclination:       98.7711 deg
RA of node:        85.3071 deg
Eccentricity:    0.0015756
Arg of perigee:   160.3626 deg
Mean anomaly:     199.8155 deg
Mean motion:   14.09177705 rev/day
Decay rate:    9.4000E-007 rev/day^2
Epoch rev:            3745
Checksum:              298

Satellite: NOAA 17
Catalog number: 27453
Epoch time:      103035.92754442
Element set:     295 
Inclination:       98.7604 deg
RA of node:       107.2101 deg
Eccentricity:    0.0012481
Arg of perigee:    39.3212 deg
Mean anomaly:     320.8869 deg
Mean motion:   14.23284333 rev/day
Decay rate:    2.4599E-006 rev/day^2
Epoch rev:            3202
Checksum:              294

Satellite: HOT BIRD 6
Catalog number: 27499
Epoch time:      103013.80550721
Element set:     66 
Inclination:        0.0928 deg
RA of node:        32.8693 deg
Eccentricity:    0.0008090
Arg of perigee:   290.3889 deg
Mean anomaly:      92.5421 deg
Mean motion:    1.00271722 rev/day
Decay rate:    1.0600E-006 rev/day^2
Epoch rev:             147
Checksum:              269

Satellite: RUBIN 2
Catalog number: 27605
Epoch time:      103036.12236480
Element set:     47 
Inclination:       64.5588 deg
RA of node:       238.0747 deg
Eccentricity:    0.0031621
Arg of perigee:   119.3804 deg
Mean anomaly:     241.0438 deg
Mean motion:   14.71368969 rev/day
Decay rate:   -2.1070E-005 rev/day^2
Epoch rev:             683
Checksum:              294


Read previous mail | Read next mail


 21.12.2025 13:32:27lGo back Go up